This demonstration page uses our WeatherBlox Daily Observations layout. Learn more.

Left ArrowRight Arrow

Hourly Observations for August 27, 2016

Temp ( °F °C ) Dew Point ( °F °C ) Humidity (%) Winds ( mph kmh ) Pressure ( in mb ) Visibility ( mi km ) Precip ( " mm )
12:14 am 00:14 Clear 68 20 68 20 100 100 Calm 30.12 1020 5 8.0467 N/A
12:34 am 00:34 Clear 68 20 68 20 100 100 Calm 30.12 1020 5 8.0467 N/A
12:54 am 00:54 Clear 68 20 68 20 100 100 Calm 30.09 1019 3 4.82802 N/A
1:14 am 01:14 Clear 68 20 68 20 100 100 Calm 30.09 1019 4 6.43736 N/A
1:34 am 01:34 Clear 68 20 68 20 100 100 Calm 30.12 1020 4 6.43736 N/A
1:54 am 01:54 Clear 68 20 68 20 100 100 Calm 30.09 1019 5 8.0467 N/A
2:14 am 02:14 Clear 68 20 68 20 100 100 Calm 30.12 1020 7 11.26538 N/A
2:34 am 02:34 Clear 68 20 68 20 100 100 SE 6 9 30.09 1019 7 11.26538 N/A
2:54 am 02:54 Clear 70 21 68 20 94 94 SE 5 7 30.09 1019 10 16.0934 N/A
3:14 am 03:14 Clear 70 21 68 20 94 94 SE 3 6 30.09 1019 10 16.0934 N/A
3:34 am 03:34 Clear 70 21 68 20 94 94 SSE 3 6 30.09 1019 10 16.0934 N/A
3:54 am 03:54 Clear 70 21 68 20 94 94 SSE 6 9 30.09 1019 10 16.0934 N/A
4:14 am 04:14 Clear 70 21 68 20 94 94 SSE 3 6 30.09 1019 10 16.0934 N/A
4:35 am 04:35 Clear 68 20 68 20 100 100 SSE 5 7 30.09 1019 10 16.0934 N/A
4:54 am 04:54 Clear 68 20 68 20 100 100 SSE 5 7 30.09 1019 10 16.0934 N/A
5:14 am 05:14 Clear 68 20 68 20 100 100 Calm 30.09 1019 10 16.0934 N/A
5:34 am 05:34 Clear 68 20 68 20 100 100 Calm 30.09 1019 7 11.26538 N/A
5:54 am 05:54 Clear 68 20 68 20 100 100 NE 3 6 30.06 1018 7 11.26538 N/A
6:14 am 06:14 Clear 68 20 66 19 94 94 Calm 30.09 1019 7 11.26538 N/A
6:35 am 06:35 Clear 66 19 66 19 100 100 ESE 3 6 30.09 1019 7 11.26538 N/A
6:54 am 06:54 Clear 68 20 66 19 94 94 SE 5 7 30.09 1019 10 16.0934 N/A
7:14 am 07:14 Partly Cloudy 68 20 68 20 100 100 WSW 7 11 30.09 1019 10 16.0934 N/A
7:35 am 07:35 Sunny 68 20 68 20 100 100 Calm 30.12 1020 7 11.26538 N/A
7:54 am 07:54 Sunny 70 21 68 20 94 94 Calm 30.12 1020 5 8.0467 N/A
8:14 am 08:14 Sunny 70 21 70 21 100 100 Calm 30.12 1020 7 11.26538 N/A
8:35 am 08:35 Sunny 72 22 70 21 94 94 Calm 30.09 1019 7 11.26538 N/A
8:54 am 08:54 Sunny 72 22 70 21 94 94 Calm 30.15 1021 10 16.0934 N/A
9:14 am 09:14 Partly Cloudy 73 23 72 22 94 94 ESE 3 6 30.09 1019 10 16.0934 N/A
9:35 am 09:35 Mostly Cloudy 73 23 72 22 94 94 Calm 30.09 1019 10 16.0934 N/A
9:54 am 09:54 Mostly Cloudy 75 24 72 22 89 89 ESE 5 7 30.09 1019 10 16.0934 N/A
10:14 am 10:14 Partly Cloudy 75 24 72 22 89 89 Calm 30.09 1019 10 16.0934 N/A
10:35 am 10:35 Partly Cloudy 77 25 73 23 89 89 W 6 9 30.12 1020 10 16.0934 N/A
10:54 am 10:54 Mostly Cloudy 77 25 72 22 83 83 WNW 7 11 30.12 1020 10 16.0934 N/A
11:14 am 11:14 Mostly Cloudy 77 25 72 22 83 83 NW 8 13 30.12 1020 10 16.0934 N/A
11:34 am 11:34 Cloudy 75 24 72 22 89 89 NW 5 7 30.12 1020 4 6.43736 N/A
11:54 am 11:54 Partly Cloudy 73 23 72 22 94 94 WNW 3 6 30.12 1020 10 16.0934 N/A
12:14 pm 12:14 Partly Cloudy 75 24 70 21 83 83 Calm 30.12 1020 10 16.0934 N/A
12:34 pm 12:34 Mostly Cloudy 73 23 70 21 89 89 SW 3 6 30.15 1021 10 16.0934 N/A
12:54 pm 12:54 Cloudy 73 23 72 22 94 94 SSW 6 9 30.12 1020 5 8.0467 N/A
1:14 pm 13:14 Cloudy 72 22 72 22 100 100 S 3 6 30.15 1021 4 6.43736 N/A
1:34 pm 13:34 Cloudy 72 22 72 22 100 100 SE 6 9 30.09 1019 4 6.43736 N/A
1:54 pm 13:54 Cloudy 72 22 72 22 100 100 ESE 7 11 30.09 1019 4 6.43736 N/A
2:14 pm 14:14 Mostly Cloudy 72 22 70 21 94 94 ESE 5 7 30.09 1019 10 16.0934 N/A
2:34 pm 14:34 Partly Cloudy 72 22 70 21 94 94 Calm 30.09 1019 10 16.0934 N/A
2:54 pm 14:54 Sunny 73 23 72 22 94 94 S 3 6 30.09 1019 10 16.0934 N/A
3:14 pm 15:14 Sunny 75 24 72 22 89 89 SSW 3 6 30.09 1019 10 16.0934 N/A
3:34 pm 15:34 Partly Cloudy 75 24 72 22 89 89 SW 3 6 30.09 1019 10 16.0934 N/A
3:54 pm 15:54 Sunny 77 25 72 22 83 83 SSW 5 7 30.06 1018 10 16.0934 N/A
4:14 pm 16:14 Sunny 79 26 72 22 79 79 SSW 3 6 30.06 1018 10 16.0934 N/A
4:34 pm 16:34 Sunny 79 26 73 23 84 84 S 6 9 30.06 1018 10 16.0934 N/A
4:54 pm 16:54 Sunny 81 27 72 22 74 74 SSW 6 9 30.06 1018 10 16.0934 N/A
5:14 pm 17:14 Sunny 81 27 73 23 79 79 SSW 5 7 30.06 1018 10 16.0934 N/A
5:34 pm 17:34 Sunny 81 27 73 23 79 79 SSW 6 9 30.06 1018 10 16.0934 N/A
5:54 pm 17:54 Sunny 81 27 72 22 74 74 SSW 6 9 30.06 1018 10 16.0934 N/A
6:15 pm 18:15 Sunny 81 27 72 22 74 74 S 5 7 30.06 1018 10 16.0934 N/A
6:34 pm 18:34 Sunny 81 27 72 22 74 74 SW 5 7 30.06 1018 10 16.0934 N/A
6:54 pm 18:54 Sunny 81 27 73 23 79 79 S 3 6 30.06 1018 10 16.0934 N/A
7:15 pm 19:15 Sunny 81 27 73 23 79 79 Calm 30.06 1018 10 16.0934 N/A
7:34 pm 19:34 Sunny 79 26 73 23 84 84 SSW 3 6 30.06 1018 10 16.0934 N/A
7:54 pm 19:54 Sunny 79 26 73 23 84 84 Calm 30.09 1019 10 16.0934 N/A
8:14 pm 20:14 Sunny 77 25 72 22 83 83 SSE 3 6 30.09 1019 10 16.0934 N/A
8:34 pm 20:34 Clear 75 24 72 22 89 89 Calm 30.09 1019 10 16.0934 N/A
8:54 pm 20:54 Clear 75 24 72 22 89 89 Calm 30.09 1019 10 16.0934 N/A
9:14 pm 21:14 Clear 73 23 72 22 94 94 SSE 3 6 30.09 1019 10 16.0934 N/A
9:34 pm 21:34 Clear 73 23 72 22 94 94 Calm 30.12 1020 10 16.0934 N/A
9:54 pm 21:54 Clear 72 22 72 22 100 100 Calm 30.15 1021 10 16.0934 N/A
10:14 pm 22:14 Clear 72 22 70 21 94 94 Calm 30.15 1021 10 16.0934 N/A
10:34 pm 22:34 Clear 72 22 70 21 94 94 Calm 30.15 1021 10 16.0934 N/A
10:54 pm 22:54 Clear 70 21 70 21 100 100 ESE 3 6 30.15 1021 10 16.0934 N/A
11:14 pm 23:14 Clear 70 21 70 21 100 100 SE 5 7 30.15 1021 10 16.0934 N/A
11:34 pm 23:34 Clear 72 22 70 21 94 94 SSE 5 7 30.15 1021 10 16.0934 N/A
11:54 pm 23:54 Clear 72 22 70 21 94 94 SSE 5 7 30.15 1021 10 16.0934 N/A

Powered by AerisWeather